Waarnemingen

Advertentie
Mijn weer
Norderney, Duitsland (10113): temperatuur & dauwpunt: 15.01.2017 11:00:00 - 21.01.2017 11:00:00 (CET)Norderney, Duitsland (10113): temperatuur 5cm & temperatuur -5cm: 15.01.2017 11:00:00 - 21.01.2017 11:00:00 (CET)Norderney, Duitsland (10113): temperatuur -20cm & temperatuur -100cm: 15.01.2017 11:00:00 - 21.01.2017 11:00:00 (CET)Norderney, Duitsland (10113): windsnelheid & windstoten: 15.01.2017 11:00:00 - 21.01.2017 11:00:00 (CET)Norderney, Duitsland (10113): windrichting: 15.01.2017 11:00:00 - 21.01.2017 11:00:00 (CET)Norderney, Duitsland (10113): luchtdruk: 15.01.2017 11:00:00 - 21.01.2017 11:00:00 (CET)Norderney, Duitsland (10113): zicht: 15.01.2017 11:00:00 - 21.01.2017 11:00:00 (CET)Norderney, Duitsland (10113): Zonneschijnduur: 15.01.2017 11:00:00 - 21.01.2017 11:00:00 (CET)Norderney, Duitsland (10113): neerslag: 15.01.2017 11:00:00 - 21.01.2017 11:00:00 (CET)
Datum & Tijd tt [°C] td [°C] tt 5cm [°C] tt -5cm [°C] tt -20cm [°C] tt -100cm [°C] ff [km/u] ff [kn] fx [km/u] fx [kn] dd ppp [hPa] vv [km] sd [min] rr [mm]
21.01.2017 11:00:00 4,0 2,4 3,8 2,7 2,3 4,5 3 2 8 4 OZO 1032,9 11 0 0,0
21.01.2017 10:00:00 3,3 2,1 3,0 2,4 2,2 4,5 4 2 6 3 N 1033,2 9 0 0,0
21.01.2017 09:00:00 4,0 1,9 3,0 2,3 2,2 4,5 5 3 12 7 Z 1032,9 14 0 0,0
21.01.2017 08:00:00 3,9 2,0 2,9 2,2 2,1 4,5 7 4 12 6 ZZW 1032,8 15 0 0,0
21.01.2017 07:00:00 3,6 2,2 2,8 2,2 2,1 4,5 8 4 12 7 Z 1033,0 10 0 0,0
21.01.2017 06:00:00 3,8 2,5 3,0 2,1 2,0 4,5 9 5 14 7 Z 1033,2 9 0 0,0
21.01.2017 05:00:00 3,5 2,5 2,7 2,1 2,0 4,5 5 3 9 5 Z 1033,5 8 0 0,0
21.01.2017 04:00:00 3,3 2,8 2,7 2,0 1,9 4,5 6 3 10 5 Z 1033,7 5 0 0,0
21.01.2017 03:00:00 2,7 2,2 2,3 2,0 1,9 4,5 2 1 6 4 W 1034,0 1,3 0 0,0
21.01.2017 02:00:00 3,1 2,5 2,6 2,0 1,8 4,5 3 1 10 5 Z 1034,2 3,4 0 0,0
21.01.2017 01:00:00 3,0 2,3 2,5 1,9 1,8 4,5 3 2 5 3 ZO 1034,5 2,2 0 0,0
21.01.2017 00:00:00 2,9 2,4 2,4 1,9 1,7 4,5 2 1 7 4 ZO 1034,8 2,1 0 0,0
20.01.2017 23:00:00 2,9 2,5 2,5 1,9 1,7 4,5 4 2 9 5 ZZW 1034,9 2,0 0 0,0
20.01.2017 22:00:00 2,7 2,4 2,4 1,8 1,6 4,5 6 3 10 5 Z 1034,9 1,8 0 0,0
20.01.2017 21:00:00 2,7 2,4 2,5 1,8 1,5 4,5 7 4 13 7 ZZW 1035,0 1,7 0 0,0
20.01.2017 20:00:00 2,7 2,4 2,5 1,7 1,5 4,5 9 5 14 7 ZZW 1035,0 1,5 0 0,0
20.01.2017 19:00:00 2,9 2,5 2,6 1,7 1,3 4,5 7 4 13 7 ZZW 1035,2 1,5 0 0,0
20.01.2017 18:00:00 3,2 2,8 2,8 1,6 1,2 4,5 7 4 14 8 ZZW 1035,2 1,9 0 0,0
20.01.2017 17:00:00 3,5 3,1 3,1 1,6 1,0 4,5 8 5 14 8 ZW 1035,2 1,9 0 0,0
20.01.2017 16:00:00 3,6 3,3 3,3 1,5 0,8 4,5 8 4 15 8 WZW 1035,3 2,3 0 0,0
20.01.2017 15:00:00 3,5 3,1 3,7 1,2 0,7 4,5 10 5 18 10 WZW 1035,4 2,7 0 0,0
20.01.2017 14:00:00 3,3 2,7 3,4 0,8 0,6 4,5 9 5 17 9 WZW 1035,7 3,2 0 0,0
20.01.2017 13:00:00 3,2 2,9 3,5 0,5 0,6 4,5 8 4 15 8 ZW 1036,2 2,2 0 0,2
20.01.2017 12:00:00 2,9 2,4 3,1 0,2 0,6 4,6 9 5 15 8 ZZW 1036,6 2,7 0 0,0
20.01.2017 11:00:00 2,9 2,0 2,9 0,1 0,6 4,6 11 6 19 10 ZW 1036,6 3,2 0 0,0
20.01.2017 10:00:00 2,8 1,0 2,6 0,0 0,6 4,6 11 6 18 10 ZW 1036,6 4,3 0 0,0
20.01.2017 09:00:00 2,6 0,2 2,3 0,0 0,6 4,6 11 6 18 10 ZW 1036,3 7 0 0,0
20.01.2017 08:00:00 2,4 -0,3 2,1 0,0 0,6 4,6 12 7 18 10 ZZW 1036,1 9 0 0,0
20.01.2017 07:00:00 2,5 0,0 2,2 0,0 0,6 4,6 11 6 17 9 ZZW 1036,1 8 0 0,0
20.01.2017 06:00:00 2,7 0,1 2,3 0,0 0,6 4,6 8 5 14 8 ZZW 1036,3 9 0 0,0
20.01.2017 05:00:00 2,8 0,2 2,4 0,0 0,6 4,6 9 5 16 9 ZW 1036,6 9 0 0,0
20.01.2017 04:00:00 2,8 -0,5 2,4 0,0 0,6 4,6 9 5 15 8 ZW 1036,8 10 0 0,0
20.01.2017 03:00:00 2,6 -1,2 2,2 0,0 0,6 4,6 9 5 20 11 ZW 1036,9 10 0 0,0
20.01.2017 02:00:00 2,1 -2,1 1,8 -0,1 0,6 4,6 14 8 22 12 ZW 1037,2 11 0 0,0
20.01.2017 01:00:00 1,7 -1,0 1,5 -0,1 0,6 4,6 10 5 16 9 ZW 1037,4 8 0 0,0
20.01.2017 00:00:00 1,6 -0,7 1,3 -0,1 0,6 4,6 9 5 19 11 ZZW 1037,8 8 0 0,0
19.01.2017 23:00:00 2,0 -0,8 1,7 -0,1 0,6 4,6 11 6 18 10 ZW 1037,6 8 0 0,0
19.01.2017 22:00:00 1,8 -1,0 1,5 -0,1 0,6 4,7 11 6 19 11 Z 1037,7 8 0 0,0
19.01.2017 21:00:00 1,8 -0,9 1,1 -0,1 0,5 4,7 13 7 23 12 ZW 1037,6 8 0 0,0
19.01.2017 20:00:00 1,8 -1,1 1,0 -0,1 0,5 4,7 15 8 23 12 ZW 1037,5 9 0 0,0
19.01.2017 19:00:00 1,7 -1,2 0,5 -0,1 0,5 4,7 13 7 20 11 ZW 1037,4 10 0 0,0
19.01.2017 18:00:00 1,8 -1,6 0,9 -0,1 0,5 4,7 14 7 19 10 ZZW 1037,7 11 0 0,0
19.01.2017 17:00:00 1,9 -2,0 1,2 -0,1 0,5 4,7 14 7 23 12 ZZW 1037,5 13 24 0,0
19.01.2017 16:00:00 2,0 -2,0 1,9 -0,1 0,5 4,7 14 8 23 12 ZZW 1037,3 13 38 0,0
19.01.2017 15:00:00 2,5 -2,0 4,2 -0,1 0,5 4,7 13 7 20 11 ZZW 1037,6 12 17 0,0
19.01.2017 14:00:00 2,0 -2,7 2,6 -0,1 0,5 4,7 13 7 20 11 ZW 1038,0 16 0 0,0
19.01.2017 13:00:00 1,8 -2,8 2,6 -0,1 0,5 4,7 14 8 21 11 ZZW 1038,4 18 0 0,0
19.01.2017 12:00:00 1,4 -2,6 1,9 -0,1 0,5 4,7 15 8 21 12 ZZW 1038,5 12 0 0,0
19.01.2017 11:00:00 1,4 -3,0 1,8 -0,2 0,5 4,8 13 7 20 11 ZW 1038,8 14 0 0,0
19.01.2017 10:00:00 0,9 -3,0 0,6 -0,2 0,5 4,8 13 7 22 12 ZZW 1038,7 12 0 0,0
19.01.2017 09:00:00 0,8 -3,0 0,5 -0,2 0,5 4,8 13 7 23 13 ZZW 1038,4 11 0 0,0
19.01.2017 08:00:00 0,8 -3,3 0,5 -0,3 0,5 4,8 15 8 23 12 ZW 1037,8 12 0 0,0
19.01.2017 07:00:00 0,4 -2,7 -0,1 -0,3 0,5 4,8 14 8 24 13 ZZW 1037,6 9 0 0,0
19.01.2017 06:00:00 0,4 -2,6 0,1 -0,4 0,5 4,8 12 7 24 13 ZZW 1038,1 9 0 0,0
19.01.2017 05:00:00 0,4 -2,8 0,0 -0,5 0,6 4,8 15 8 24 13 ZZW 1038,6 9 0 0,0
19.01.2017 04:00:00 0,0 -2,3 -0,6 -0,6 0,6 4,8 13 7 21 12 ZZW 1038,7 8 0 0,0
19.01.2017 03:00:00 0,4 -3,8 -0,5 -0,5 0,6 4,8 13 7 22 12 ZZW 1038,5 16 0 0,0
19.01.2017 02:00:00 0,0 -3,4 -0,7 -0,7 0,6 4,8 13 7 23 12 ZZW 1038,6 13 0 0,0
19.01.2017 01:00:00 -0,9 -2,7 -1,9 -0,4 0,6 4,9 13 7 22 12 ZZW 1038,7 6 0 0,0
19.01.2017 00:00:00 -0,7 -2,6 -1,2 -0,3 0,6 4,9 14 8 25 14 ZZW 1038,7 7 0 0,0
18.01.2017 23:00:00 -1,0 -2,6 -1,5 -0,1 0,6 4,9 15 8 24 13 ZZW 1038,9 6 0 0,0
18.01.2017 22:00:00 -1,0 -2,5 -1,3 -0,1 0,6 4,9 17 9 26 14 Z 1039,0 6 0 0,0
18.01.2017 21:00:00 -0,8 -2,4 -1,0 -0,1 0,6 4,9 15 8 29 16 ZZW 1039,1 6 0 0,0
18.01.2017 20:00:00 -0,7 -2,2 -0,9 -0,1 0,6 4,9 17 9 27 15 Z 1039,1 5 0 0,0
18.01.2017 19:00:00 -0,8 -2,4 -0,9 -0,1 0,5 4,9 16 9 31 17 Z 1039,2 5 0 0,0
18.01.2017 18:00:00 -0,7 -2,3 -0,8 -0,1 0,5 4,9 16 9 28 15 Z 1039,5 6 0 0,0
18.01.2017 17:00:00 -0,4 -2,4 -0,6 -0,1 0,5 4,9 14 7 26 14 ZZW 1039,6 8 0 0,0
18.01.2017 16:00:00 -0,1 -2,6 -0,3 -0,1 0,5 4,9 13 7 27 14 ZZW 1039,5 9 0 0,0
18.01.2017 15:00:00 -0,4 -3,0 -0,2 -0,1 0,5 5,0 14 8 27 14 ZZW 1039,3 11 0 0,0
18.01.2017 14:00:00 -0,5 -2,6 0,0 -0,2 0,6 5,0 14 8 27 14 ZZW 1039,8 10 0 0,0
18.01.2017 13:00:00 -1,1 -3,0 -0,3 -0,2 0,6 5,0 16 9 25 13 ZZW 1040,0 8 4 0,0
18.01.2017 12:00:00 -2,1 -3,6 -1,6 -0,3 0,6 5,0 16 9 27 15 ZZW 1040,3 8 0 0,0
18.01.2017 11:00:00 -2,9 -3,8 -2,2 -0,6 0,6 5,0 18 10 31 17 Z 1040,6 6 0 0,0
18.01.2017 10:00:00 -3,5 -4,4 -3,2 -1,1 0,6 5,0 20 11 29 15 Z 1040,1 4,9 0 0,0
18.01.2017 09:00:00 -3,4 -4,2 -4,0 -1,2 0,6 5,0 14 7 25 13 Z 1039,6 5 0 0,0
18.01.2017 08:00:00 -3,3 -4,0 -3,4 -1,0 0,6 5,0 16 9 25 14 Z 1039,2 6 0 0,0
18.01.2017 07:00:00 -3,6 -4,1 -3,9 -1,0 0,6 5,0 15 8 26 14 Z 1039,3 4,3 0 0,0
18.01.2017 06:00:00 -3,1 -3,5 -3,3 -0,9 0,7 5,1 14 7 27 15 Z 1039,2 3,4 0 0,0
18.01.2017 05:00:00 -3,4 -3,9 -3,4 -0,7 0,7 5,1 16 9 25 13 Z 1039,6 3,8 0 0,0
18.01.2017 04:00:00 -3,0 -3,4 -3,0 -0,7 0,7 5,1 14 8 19 11 Z 1039,7 3,1 0 0,0
18.01.2017 03:00:00 -3,0 -3,4 -3,1 -0,9 0,7 5,1 13 7 21 11 Z 1039,8 2,5 0 0,0
18.01.2017 02:00:00 -4,0 -4,4 -4,3 -0,9 0,7 5,1 15 8 24 13 Z 1040,0 2,6 0 0,0
18.01.2017 01:00:00 -3,5 -3,9 -3,8 -0,8 0,7 5,1 14 7 24 13 Z 1039,8 1,4 0 0,0
18.01.2017 00:00:00 -4,0 -4,5 -4,3 -0,5 0,7 5,1 18 10 26 14 Z 1039,9 0,5 0 0,0
17.01.2017 23:00:00 -3,7 -4,2 -3,7 -0,2 0,7 5,1 16 9 25 13 Z 1040,0 0,3 0 0,0
17.01.2017 22:00:00 -2,6 -3,2 -2,8 -0,1 0,7 5,1 15 8 24 13 Z 1039,6 0,6 0 0,0
17.01.2017 21:00:00 -1,5 -2,4 -2,5 -0,1 0,7 5,2 13 7 17 9 Z 1039,6 3,0 0 0,0
17.01.2017 20:00:00 -0,7 -1,9 -1,6 -0,1 0,7 5,2 9 5 16 9 ZZW 1039,3 6 0 0,0
17.01.2017 19:00:00 0,7 -2,0 -0,6 -0,1 0,7 5,2 10 5 16 8 ZW 1039,0 18 0 0,0
17.01.2017 18:00:00 0,8 -2,4 -0,7 -0,1 0,7 5,2 9 5 13 7 ZZW 1038,7 25 0 0,0
17.01.2017 17:00:00 1,0 -2,1 -0,5 -0,1 0,7 5,2 9 5 13 7 ZW 1038,5 21 8 0,0
17.01.2017 16:00:00 1,2 -1,5 0,7 -0,1 0,8 5,2 9 5 16 9 WZW 1038,6 16 36 0,0
17.01.2017 15:00:00 1,3 -2,4 2,2 -0,1 0,8 5,2 9 5 15 8 ZW 1038,3 22 25 0,0
17.01.2017 14:00:00 1,1 -1,8 1,8 -0,1 0,8 5,2 10 5 16 8 WZW 1038,5 16 49 0,0
17.01.2017 13:00:00 0,7 -1,5 1,5 -0,2 0,8 5,3 10 5 16 9 ZW 1038,5 14 38 0,0
17.01.2017 12:00:00 0,2 -1,0 2,0 -0,2 0,8 5,3 10 5 16 9 ZW 1038,4 4,9 20 0,0
17.01.2017 11:00:00 -0,2 -1,4 -0,2 -0,5 0,8 5,3 11 6 16 9 ZZW 1038,2 6 18 0,0
17.01.2017 10:00:00 0,0 -1,1 -1,2 -0,6 0,8 5,3 10 6 14 8 ZW 1037,6 4,9 9 0,0
17.01.2017 09:00:00 0,2 -1,3 -1,4 -0,7 0,8 5,3 8 4 12 6 ZW 1037,3 7 0 0,0
17.01.2017 08:00:00 0,4 -1,8 -1,4 -0,6 0,9 5,3 8 4 13 7 ZW 1036,6 12 0 0,0
17.01.2017 07:00:00 0,1 -2,0 -1,9 -0,8 0,9 5,3 7 4 10 6 ZW 1036,1 13 0 0,0
17.01.2017 06:00:00 -0,4 -2,7 -3,1 -1,0 0,9 5,3 7 4 9 5 ZW 1035,6 16 0 0,0
17.01.2017 05:00:00 -0,7 -2,8 -5,8 -0,9 1,0 5,4 6 4 9 5 ZW 1035,5 16 0 0,0
17.01.2017 04:00:00 -1,1 -3,2 -4,7 -0,8 1,0 5,4 8 5 9 5 Z 1035,2 22 0 0,0
17.01.2017 03:00:00 -1,4 -3,4 -5,2 -0,7 1,1 5,4 8 4 9 5 Z 1034,8 26 0 0,0
17.01.2017 02:00:00 -1,8 -4,2 -5,3 -0,5 1,1 5,4 4 2 9 5 Z 1034,8 26 0 0,0
17.01.2017 01:00:00 -1,2 -3,6 -4,2 -0,3 1,1 5,4 8 5 9 5 ZZO 1034,3 41 0 0,0
17.01.2017 00:00:00 -1,3 -3,9 -4,5 -0,1 1,2 5,4 9 5 10 6 ZZO 1034,1 61 0 0,0
16.01.2017 23:00:00 -0,6 -3,8 -4,4 0,0 1,2 5,4 7 4 9 5 ZO 1033,6 70 0 0,0
16.01.2017 22:00:00 -0,4 -3,5 -6,4 0,1 1,2 5,4 3 2 8 4 ZZO 1033,3 70 0 0,0
16.01.2017 21:00:00 -0,3 -3,8 -3,9 0,2 1,3 5,4 6 4 11 6 ZZO 1032,5 68 0 0,0
16.01.2017 20:00:00 0,1 -4,2 -3,5 0,2 1,3 5,5 7 4 10 6 OZO 1031,9 70 0 0,0
16.01.2017 19:00:00 0,4 -4,3 -2,2 0,2 1,3 5,5 8 4 19 10 O 1031,2 70 0 0,0
16.01.2017 18:00:00 1,0 -4,0 -0,9 0,2 1,3 5,5 14 7 22 12 ONO 1030,7 70 0 0,0
16.01.2017 17:00:00 1,5 -3,5 -0,3 0,2 1,3 5,5 16 9 22 12 ONO 1030,4 47 45 0,0
16.01.2017 16:00:00 2,0 -3,3 1,0 0,2 1,3 5,5 16 9 22 12 NO 1029,8 20 58 0,0
16.01.2017 15:00:00 2,0 -3,1 3,0 0,2 1,3 5,5 13 7 18 10 NO 1029,5 16 60 0,0
16.01.2017 14:00:00 1,9 -3,9 3,2 0,1 1,4 5,5 10 5 14 8 NNO 1029,1 17 60 0,0
16.01.2017 13:00:00 2,0 -2,6 4,3 0,1 1,4 5,5 3 2 7 4 N 1029,1 18 60 0,0
16.01.2017 12:00:00 2,2 -2,2 3,1 0,1 1,4 5,5 2 1 7 4 ZO 1028,9 36 60 0,0
16.01.2017 11:00:00 1,1 -2,3 1,0 0,1 1,5 5,5 5 3 10 5 ZZO 1028,6 44 60 0,0
16.01.2017 10:00:00 -0,3 -2,7 -2,0 0,2 1,5 5,6 7 4 9 5 ZZO 1028,0 21 58 0,0
16.01.2017 09:00:00 -1,3 -3,2 -2,7 0,2 1,6 5,6 7 4 9 5 ZZO 1027,5 27 0 0,0
16.01.2017 08:00:00 -1,1 -2,9 -3,8 0,3 1,6 5,6 7 4 11 6 ZZO 1026,8 32 0 0,0
16.01.2017 07:00:00 -0,3 -3,2 -2,2 0,4 1,7 5,6 10 5 15 8 OZO 1026,4 54 0 0,0
16.01.2017 06:00:00 -0,1 -3,4 -2,9 0,4 1,7 5,6 8 4 17 9 O 1025,7 62 0 0,0
16.01.2017 05:00:00 0,9 -3,0 -1,0 0,5 1,8 5,6 15 8 22 12 ONO 1025,0 49 0 0,0
16.01.2017 04:00:00 1,8 -2,8 -0,1 0,5 1,8 5,6 18 10 22 12 NO 1024,8 24 0 0,0
16.01.2017 03:00:00 1,7 -2,9 -1,2 0,6 1,8 5,6 14 8 18 10 NO 1024,5 14 0 0,0
16.01.2017 02:00:00 1,1 -1,8 -1,4 0,6 1,9 5,6 6 3 11 6 O 1024,1 70 0 0,0
16.01.2017 01:00:00 1,6 -1,4 0,0 0,7 1,9 5,6 6 4 13 7 ZZO 1023,8 57 0 0,0
16.01.2017 00:00:00 1,6 -0,8 0,2 0,7 2,0 5,6 10 6 23 12 ZO 1023,3 70 0 0,0
15.01.2017 23:00:00 3,3 0,3 0,9 0,7 2,0 5,6 18 10 22 12 N 1022,8 13 0 0,0
15.01.2017 22:00:00 2,9 0,9 0,9 0,8 2,1 5,7 19 10 23 12 NNW 1022,4 12 0 0,0
15.01.2017 21:00:00 1,9 0,8 0,0 0,8 2,2 5,7 9 5 20 11 WNW 1022,0 29 0 0,0
15.01.2017 20:00:00 1,8 0,5 0,2 1,0 2,3 5,7 16 8 24 13 WNW 1021,7 53 0 0,3
15.01.2017 19:00:00 1,3 0,4 0,8 1,0 2,4 5,7 13 7 23 13 WZW 1021,4 7 0 0,0
15.01.2017 18:00:00 1,3 0,2 0,0 1,1 2,5 5,7 9 5 13 7 Z 1020,7 40 0 0,1
15.01.2017 17:00:00 1,3 -0,7 -0,9 1,4 2,6 5,7 7 4 9 5 OZO 1020,3 29 0 0,0
15.01.2017 16:00:00 2,0 0,4 0,0 2,3 2,6 5,7 6 3 38 20 O 1019,7 36 23 0,0
15.01.2017 15:00:00 2,9 0,4 2,8 2,3 2,6 5,7 4 2 11 6 ZW 1019,3 56 21 0,0
15.01.2017 14:00:00 1,5 0,0 0,5 2,5 2,5 5,7 6 3 48 26 W 1019,2 10 4 1,0
15.01.2017 13:00:00 4,1 -0,2 4,2 3,0 2,3 5,7 16 9 26 14 NW 1018,6 6 45 0,0
15.01.2017 12:00:00 4,6 -2,1 5,6 1,9 2,1 5,7 22 12 32 18 N 1018,3 8 60 0,0
15.01.2017 11:00:00 4,4 -2,4 4,2 1,1 2,1 5,7 27 14 35 19 N 1017,9 11 53 0,0

tt = temperatuur
td = dauwpunt
tt 5cm = temperatuur 5cm
tt -5cm = temperatuur -5cm
tt -20cm = temperatuur -20cm
tt -100cm = temperatuur -100cm
ff = windsnelheid
fx = windstoten
dd = windrichting
ppp = luchtdruk
vv = zicht
sd = Zonneschijnduur
rr = neerslag

Weerstations in de omgeving